96P/Machholz 1 (2007)

Japanese version
Home page
Updated on August 13, 2012

---------------------------------------------------------------------

* Profile

* Pictures

* Orbital Elements

The following orbital elements are taken from MPC 51822: 

Epoch 2007 Apr. 10.0 TT = JDT 2454200.5
T 2007 Apr. 4.6194 TT                                   MPC
q   0.124618             (2000.0)            P               Q
n   0.1881482      Peri.   14.6181      -0.2027322      -0.4629182
a   3.016264       Node    94.5507      +0.7888859      -0.5992693
e   0.958684       Incl.   59.9553      +0.5801368      +0.6531333
P   5.24
From 133 observations 1986-2002, mean residual 0".8.  Nongravitational
     parameters A1 = +0.01, A2 = -0.0002.

* Finding Charts

* Magnitudes Graph

        m1 = 12.7 + 5 log d + 12.0 log r

---------------------------------------------------------------------

The orbital elements are published at the MPC Ephemerides and Orbital Elements.
The charts are made with StellaNavigator Ver.2.0 for Windows (AstroArts / ASCII).
The magnitudes graphs are made with Comet for Windows.

---------------------------------------------------------------------

Copyright(C) Seiichi Yoshida (comet@aerith.net). All rights reserved.